This demonstration page uses our WeatherBlox Daily Observations layout. Learn more.

Left ArrowRight Arrow

38.80484, -77.04692

Hourly Observations for November 27, 2021

Temp ( °F °C ) Dew Point ( °F °C ) Humidity (%) Winds ( mph kmh ) Pressure ( in mb ) Visibility ( mi km ) Precip ( " mm )
12:52 am 00:52 Cloudy 36 2.2 17 -8.3 46 46 WNW 14 22 29.97 1015 10 16 0.00 0.00
1:52 am 01:52 Mostly Cloudy 35 1.7 17 -8.3 48 48 WNW 15 24 29.98 1015 10 16 0.00 0.00
2:52 am 02:52 Mostly Cloudy 35 1.7 16 -8.9 46 46 WNW 15 24 29.98 1015 10 16 0.00 0.00
3:52 am 03:52 Partly Cloudy 34 1.1 16 -8.9 48 48 WNW 14 22 29.99 1016 10 16 0.00 0.00
4:52 am 04:52 Mostly Cloudy 34 1.1 16 -8.9 48 48 WNW 16 26 30.01 1016 10 16 0.00 0.00
5:52 am 05:52 Mostly Cloudy 34 1.1 15 -9.4 46 46 WNW 8 13 30.03 1017 10 16 0.00 0.00
6:52 am 06:52 Partly Cloudy 34 1.1 16 -8.9 48 48 WNW 9 15 30.04 1017 10 16 0.00 0.00
7:52 am 07:52 Partly Cloudy 36 2.2 17 -8.3 46 46 NW 8 13 30.06 1018 10 16 0.00 0.00
8:52 am 08:52 Mostly Sunny 37 2.8 17 -8.3 44 44 NW 14 22 30.06 1018 10 16 0.00 0.00
9:52 am 09:52 Mostly Sunny 39 3.9 18 -7.8 43 43 NW 16 26 30.06 1018 10 16 0.00 0.00
10:52 am 10:52 Mostly Sunny 40 4.4 18 -7.8 41 41 NW 15 24 30.06 1018 10 16 0.00 0.00
11:52 am 11:52 Mostly Sunny 42 5.6 18 -7.8 38 38 NNW 15 24 30.05 1018 10 16 0.00 0.00
12:52 pm 12:52 Partly Cloudy 43 6.1 17 -8.3 35 35 WNW 9 15 30.02 1017 10 16 0.00 0.00
1:52 pm 13:52 Partly Cloudy 42 5.6 16 -8.9 35 35 NW 14 22 30.01 1016 10 16 0.00 0.00
2:52 pm 14:52 Mostly Cloudy 43 6.1 18 -7.8 37 37 NNW 10 17 30.00 1016 10 16 0.00 0.00
3:52 pm 15:52 Mostly Cloudy 45 7.2 19 -7.2 35 35 NW 12 19 29.99 1016 10 16 0.00 0.00
4:52 pm 16:52 Mostly Cloudy 43 6.1 19 -7.2 38 38 W 5 7 30.00 1016 10 16 0.00 0.00
5:52 pm 17:52 Mostly Cloudy 43 6.1 20 -6.7 40 40 SW 5 7 30.00 1016 10 16 0.00 0.00
6:52 pm 18:52 Cloudy 42 5.6 23 -5 47 47 S 6 9 29.99 1016 10 16 0.00 0.00
7:52 pm 19:52 Cloudy 42 5.6 26 -3.3 53 53 S 6 9 30.01 1016 10 16 0.00 0.00
8:52 pm 20:52 Cloudy 42 5.6 25 -3.9 51 51 S 7 11 30.00 1016 10 16 0.00 0.00
9:52 pm 21:52 Cloudy 42 5.6 23 -5 47 47 SSE 5 7 29.98 1015 10 16 0.00 0.00
10:52 pm 22:52 Cloudy 42 5.6 24 -4.4 49 49 SSE 5 7 29.96 1015 10 16 0.00 0.00
11:52 pm 23:52 Cloudy 43 6.1 24 -4.4 47 47 S 7 11 29.95 1014 10 16 0.00 0.00

Powered by AerisWeather